Lid_Strength_Index
3 3 4 4 4 4 4 4 4 4 4 4 4 3 3 2 3 4 4 3 6 8 7 7 7 8 8 9 11 9 10 9 11 12 13 12 14 13 13 12 13 14 15 15 14 16 17 7 8 12 8 6 6 6
4 3 3 4 4 4 4 4 4 4 4 4 4 4 3 2 2 3 6 3 4 7 7 5 5 5 5 6 8 8 9 9 10 11 11 11 13 12 13 15 9 14 11 13 12 12 8 6 7 5 5 6 6 7
4 3 3 3 4 4 4 4 4 4 4 4 3 3 3 2 1 3 5 4 5 8 8 8 8 5 3 4 4 9 9 8 9 8 11 11 12 11 13 13 12 10 8 10 11 9 8 6 6 5 6 6 6 6
4 4 4 4 4 4 4 4 4 3 3 2 2 2 1 1 1 2 5 4 5 7 11 9 5 6 4 4 4 5 6 6 7 8 11 11 12 9 12 11 11 10 9 9 9 8 7 7 6 6 6 6 7 6
4 4 4 4 4 4 3 3 3 2 2 1 1 0 0 0 1 2 4 4 4 7 11 10 6 5 5 5 6 5 7 8 9 11 11 11 9 10 10 10 11 9 9 11 11 8 8 7 6 5 6 7 6 6
4 4 4 3 3 3 3 3 2 2 1 0 -0 -0 -0 0 1 4 7 4 4 5 9 12 6 7 6 7 7 7 7 8 10 11 11 10 8 10 12 12 9 7 7 7 8 7 7 6 5 5 6 6 6 6
4 4 4 4 3 2 2 2 2 1 1 1 0 -0 0 1 2 6 7 4 3 4 9 11 10 7 6 6 7 8 7 8 9 10 10 9 9 9 11 12 9 7 6 6 7 6 7 6 7 5 6 6 6 7
4 3 2 2 2 2 2 2 1 1 1 1 0 1 0 2 3 6 4 3 4 6 8 12 11 9 5 8 9 7 9 8 9 9 9 10 9 10 11 8 7 7 7 8 7 6 7 6 5 6 6 7 8 9
2 2 1 1 1 1 1 2 2 1 1 0 0 2 3 5 7 6 2 3 4 6 11 11 12 12 6 8 8 8 7 11 8 10 10 9 10 12 8 8 8 8 8 8 7 7 6 7 7 7 7 7 9 10
2 2 2 2 2 2 2 2 2 1 1 1 3 5 8 6 2 2 6 8 8 8 8 11 8 12 8 9 10 10 8 10 12 10 8 11 11 7 6 7 7 7 7 7 8 8 7 8 8 8 7 8 10 11
2 2 2 2 2 1 1 2 2 1 2 4 7 8 5 2 5 8 10 11 10 12 10 10 11 13 8 12 11 10 11 10 13 11 11 11 12 9 7 7 7 6 6 7 6 6 6 7 8 8 8 10 11 12
2 2 2 2 2 1 2 2 2 3 4 5 6 5 5 7 8 11 12 10 12 13 11 11 11 10 10 9 10 10 11 11 14 9 11 13 10 8 7 7 7 6 6 6 6 7 7 8 7 8 10 11 11 12
2 2 2 2 2 2 2 2 2 2 3 5 7 9 9 10 13 14 14 13 12 11 10 10 11 10 10 10 11 11 12 12 8 12 13 11 8 7 7 7 7 6 5 6 7 8 8 8 8 9 10 11 11 12
2 2 2 2 2 2 2 2 2 3 5 8 10 12 11 12 11 10 11 10 9 8 8 9 10 11 10 12 10 12 9 9 13 14 14 10 7 7 6 6 7 6 6 8 8 8 9 9 9 9 10 11 12 13
3 2 2 2 2 2 3 2 2 3 6 10 9 12 12 9 8 8 8 8 7 6 8 8 8 9 10 10 9 10 12 14 13 12 9 7 7 7 7 7 6 6 7 8 8 9 9 9 9 10 10 12 12 13
2 2 3 2 2 2 2 2 4 4 6 9 9 10 8 9 9 9 8 8 7 7 7 8 10 11 11 10 11 12 13 14 11 8 7 7 7 7 7 7 6 7 7 7 8 8 9 10 10 11 11 12 13 14
2 4 2 2 2 2 2 5 6 7 9 10 10 7 8 8 8 7 8 8 6 8 10 9 12 12 9 11 12 11 12 9 8 8 7 7 7 7 7 7 7 8 8 8 8 8 8 9 9 11 13 13 14 14
4 2 2 2 2 4 5 5 8 9 11 9 10 8 7 7 7 6 6 6 7 8 8 10 8 11 12 12 12 9 8 8 7 7 8 7 7 7 7 8 8 8 8 8 8 8 8 9 10 12 13 13 14 15
2 3 2 2 4 6 8 8 7 10 9 9 8 7 7 7 6 6 5 6 6 6 7 8 10 11 10 8 8 8 8 8 9 8 8 7 6 7 8 8 9 9 9 9 8 8 8 8 9 10 11 13 14 15
2 2 2 3 3 7 9 9 6 9 10 8 8 8 8 8 6 6 7 6 7 8 9 9 9 7 7 7 6 6 6 7 8 8 8 7 7 8 8 9 9 9 9 9 8 10 9 9 9 9 10 11 14 15
3 3 3 3 5 6 7 9 9 9 8 8 7 8 8 7 7 7 8 6 9 9 9 7 7 6 6 6 6 5 6 6 7 7 8 9 8 8 9 9 9 9 9 10 9 9 10 10 10 9 10 11 11 13
4 3 5 4 7 7 8 7 8 7 8 7 8 8 9 9 8 8 7 9 9 8 7 8 7 7 8 8 7 6 6 6 7 8 9 9 10 9 10 10 9 10 10 10 10 10 9 10 10 10 10 11 11 12
4 5 6 6 8 9 9 6 9 8 10 9 7 9 9 8 7 6 10 9 8 6 6 7 7 7 8 8 8 7 7 8 8 9 9 9 9 10 10 10 9 10 10 10 9 9 10 11 10 10 10 11 11 12
4 7 9 9 9 11 8 9 8 9 9 9 10 10 9 8 8 9 10 9 7 7 8 8 8 9 9 8 9 9 9 8 9 10 9 10 11 11 10 10 10 10 10 10 9 9 9 10 11 10 11 11 12 12
10 10 10 11 10 10 11 10 11 11 12 11 11 11 9 8 11 11 11 9 9 9 9 8 8 8 9 9 9 9 9 9 10 11 10 10 11 11 11 11 11 10 9 10 11 10 10 10 10 11 11 11 12 12
13 11 11 11 10 11 11 12 11 11 11 11 11 9 8 11 11 12 10 10 9 9 9 9 9 9 9 8 9 10 9 8 8 10 10 10 10 10 11 11 11 11 10 10 11 11 10 10 10 11 12 12 13 11
12 12 10 7 9 9 10 9 9 10 11 11 10 10 11 12 12 10 8 10 10 10 9 8 7 7 8 9 9 9 8 8 8 9 9 9 9 9 9 10 11 10 9 10 11 11 10 10 10 11 12 12 11 11
10 9 11 10 9 9 10 10 10 10 10 8 9 11 11 11 13 13 11 10 10 10 9 7 7 7 8 9 9 9 9 9 10 10 10 10 9 9 9 9 10 13 10 10 11 11 11 10 10 11 11 12 11 11
10 8 9 11 10 10 10 10 10 9 8 8 10 11 13 12 12 12 11 11 10 9 9 9 10 9 10 10 9 9 9 9 10 11 11 12 11 11 9 10 10 11 11 12 14 12 12 11 11 10 11 11 11 11
10 8 10 10 11 11 9 8 8 8 8 10 10 10 11 11 11 10 11 12 11 10 9 9 9 9 10 10 11 11 10 9 8 9 10 11 10 10 10 10 10 11 11 11 12 12 14 12 12 11 11 10 11 11
8 8 10 10 10 9 8 9 9 9 9 10 9 10 12 11 11 11 13 12 11 10 10 10 10 9 10 10 10 10 11 10 9 9 8 9 9 9 10 10 10 11 11 11 12 12 12 12 12 12 12 12 12 12
9 10 10 11 10 9 8 9 10 11 11 12 12 11 11 12 14 13 13 13 13 13 13 11 11 11 10 10 10 11 11 10 10 9 9 9 10 10 10 11 11 11 12 12 12 12 13 13 13 13 13 14 14 13
9 9 10 10 10 11 10 10 11 12 12 13 13 13 13 14 15 13 11 12 13 14 14 13 12 12 12 12 12 12 12 12 12 13 12 12 12 11 11 11 11 11 12 12 13 13 13 13 13 13 13 14 14 14